Western Neb. Rgnl,William B. Heilig Airport Scottsbluff US
ICAO: KBFF
IATA: BFF
Category: Medium
Scheduled Services: Yes

Elevation: 3967 ft
TransAlt. 18000 ft.

Airport Communications:
ASOS:121.025
DENVER CNTR:127.95
COLUMBUS RDO:122.6
CTAF/UNICOM:123

KBFF Zoom In..

Runways:

(A) RW 05 length 8002 ft width 150 ft
---- / hdg 58

(B) RW 12 length 8279 ft width 150 ft
ILS 110.35 / hdg 126

(C) RW 23 length 8002 ft width 150 ft
---- / hdg 238

(D) RW 30 length 8279 ft width 150 ft
ILS 109.30 / hdg 306

Location; KBFF
Day. 13 / Time. 12.53 Zulu
* Altimeter: 29.90
* Temperature: 20° c. 68°f.
* Wind from: 310° Speed 05 kn.
Dewpoint: 09° c.
Visibility: 10 Statute Miles.
Clouds: Clear (automated report).

KBFF 131253Z AUTO 31005KT 10SM CLR 20/09 A2990 RMK AO2 SLP069 T02000094

Going to: --> -->


Wind From 310°
Speed 05 kn.

 
 
jpsmedia worldairports.se 2020   terms of use